Location: Cointrin
(46.2167°N, 6.1167°E)
Time: 13:58:46
(UTC+00:00)

Tiangong - Visible Passes

Search period start: 24 January 2026 00:00
Search period end: 03 February 2026 00:00
Orbit: 378 x 392 km, 41.5° (Epoch: 24 January)

Date Brightness Start Highest point End Pass type
(mag) Time Alt. Az. Time Alt. Az. Time Alt. Az.
24 Jan -0.9 05:42:11 21° SW 05:43:39 33° S 05:46:33 10° ESE visible
25 Jan 0.0 04:45:22 24° SE 04:45:22 24° SE 04:47:03 10° ESE visible
25 Jan -0.3 06:17:58 10° WSW 06:20:33 23° SSW 06:23:09 10° SE visible
26 Jan -0.8 05:20:42 28° SSW 05:21:01 28° S 05:23:49 10° SE visible
27 Jan 1.0 04:23:47 13° ESE 04:23:47 13° ESE 04:24:17 10° ESE visible
27 Jan 0.0 05:56:00 12° WSW 05:57:44 17° SSW 05:59:53 10° SSE visible
28 Jan 0.0 04:59:03 20° S 04:59:03 20° S 05:00:41 10° SE visible
29 Jan 0.3 05:34:19 12° SSW 05:34:37 12° SSW 05:35:49 10° S visible
